[[[{"header":{"parameterUnit":"kt","parameterCategory":2,"dx":1,"dy":1,"la1":30.253999710083008,"la2":30.299108505249023,"lo1":-89.0895004272461,"lo2":-89.04439544677734,"nx":28,"ny":28,"refTime":"2022-10-04T21:00:00:Z","depth":0,"parameterNumber":1,"parameterNumberName":"U-component_of_WINDS"},"data":[-9.6929,-9.7185,-9.7213,-9.7519,-9.7595,-9.781,-9.7896,-9.801,-9.8107,-9.8368,-9.8523,-9.8578,-9.8687,-9.8881,-9.9051,-9.9072,-9.9144,-9.9216,-9.9228,-9.8877,-9.8831,-9.8786,-9.8727,-9.9231,-9.9231,-9.9588,-9.9592,-9.9594,-9.6676,-9.6753,-9.6922,-9.7104,-9.725,-9.7198,-9.7338,-9.7464,-9.7658,-9.778,-9.7933,-9.8165,-9.8352,-9.8437,-9.8623,-9.8746,-9.8732,-9.8794,-9.8786,-9.8805,-9.8431,-9.8367,-9.8803,-9.8803,-9.8803,-9.8802,-9.8802,-9.8802,-9.6222,-9.6374,-9.6499,-9.6682,-9.6781,-9.6903,-9.7053,-9.7115,-9.7281,-9.7474,-9.7473,-9.7693,-9.7821,-9.8055,-9.814,-9.8314,-9.825,-9.8327,-9.8347,-9.8366,-9.8386,-9.7872,-9.8346,-9.8345,-9.8344,-9.8343,-9.8342,0,-9.5898,-9.591,-9.6072,-9.6244,-9.6378,-9.6514,-9.6642,-9.6736,-9.6768,-9.6904,-9.7103,-9.7223,-9.746,-9.7651,-9.7829,-9.7902,-9.7862,-9.7859,-9.7913,-9.7918,-9.7901,-9.7916,-9.7307,-9.7845,-9.7841,-9.7838,-9.7836,-9.7834,-9.5445,-9.5617,-9.5759,-9.5869,-9.5945,-9.6123,-9.6235,-9.625,-9.6368,-9.6529,-9.6663,-9.6854,-9.7007,-9.7323,-9.7393,-9.757,-9.7552,-9.7756,-9.7579,-9.7577,-9.7559,-9.755,-9.7569,-9.779,-9.7796,-9.78,-9.7804,0,-9.5188,-9.5227,-9.5502,-9.5624,-9.566,-9.5841,-9.5946,-9.6099,-9.614,-9.6356,-9.6407,-9.6473,-9.6668,-9.6705,-9.6935,-9.6949,-9.7254,-9.7231,-9.7212,-9.721,-9.7398,-9.7381,-9.7995,-9.8078,-9.7553,-9.7558,-9.7562,0,-9.4817,-9.5043,-9.5088,-9.5246,-9.5498,-9.5505,-9.5755,-9.5814,-9.592,-9.609,-9.6047,-9.6208,-9.6228,-9.6396,-9.6416,-9.6671,-9.6713,-9.674,-9.6743,-9.6745,-9.6742,-9.6809,-9.6786,-9.6738,-9.6735,-9.6732,-9.673,0,-9.4412,-9.4698,-9.4954,-9.5025,-9.5176,-9.5297,-9.5366,-9.5482,-9.5592,-9.5738,-9.581,-9.5981,-9.6075,-9.621,-9.6233,-9.6112,-9.6545,-9.6383,-9.6572,-9.6572,-9.6666,-9.6661,-9.7194,-9.6726,-9.6725,-9.6724,-9.6723,0,-9.4118,-9.4263,-9.4627,-9.4751,-9.4826,-9.4994,-9.5161,-9.5313,-9.544,-9.5462,-9.5578,-9.5552,-9.5775,-9.5613,-9.5921,-9.5757,-9.5854,-9.5898,-9.5912,-9.5936,-9.5754,-9.6053,-9.6556,-9.6611,-9.5957,-9.5951,-9.5945,0,-9.3645,-9.402,-9.4027,-9.4372,-9.4549,-9.4488,-9.4675,-9.4787,-9.4832,-9.499,-9.504,-9.5221,-9.5107,-9.5168,-9.5316,-9.5375,-9.5588,-9.5347,-9.5582,-9.559,-9.5552,-9.6014,-9.6081,-9.6441,-9.5864,-9.5872,-9.5879,0,-9.3283,-9.346,-9.3521,-9.3603,-9.3748,-9.3896,-9.411,-9.4289,-9.4395,-9.4524,-9.4706,-9.4959,-9.4884,-9.4985,-9.4982,-9.5134,-9.5444,-9.5033,-9.5036,-9.5109,-9.5824,-9.5887,-9.5948,-9.5409,-9.5419,-9.5427,-9.5814,0,-9.2836,-9.3026,-9.319,-9.3368,-9.3487,-9.3702,-9.3735,-9.3856,-9.384,-9.388,-9.4146,-9.4245,-9.4428,-9.4504,-9.4489,-9.4824,-9.4774,-9.4691,-9.4536,-9.4838,-9.4967,-9.5019,-9.4342,-9.4338,-9.4334,-9.4331,0,0,-9.2375,-9.2647,-9.2644,-9.285,-9.295,-9.288,-9.3108,-9.3197,-9.3379,-9.3451,-9.3364,-9.3736,-9.382,-9.414,-9.4236,-9.4309,-9.4373,-9.4265,-9.4693,-9.4734,-9.4771,-9.4908,-9.4962,-9.4325,-9.4323,-9.4322,-9.4321,0,-9.2218,-9.2301,-9.2524,-9.2616,-9.2751,-9.2781,-9.2835,-9.2956,-9.2992,-9.325,-9.319,-9.3353,-9.3647,-9.3746,-9.3834,-9.4227,-9.4173,-9.428,-9.4481,-9.4655,-9.47,-9.474,-9.4884,-9.4935,-9.4312,-9.4312,-9.4313,0,-9.1869,-9.1957,-9.2066,-9.2286,-9.2373,-9.2556,-9.2402,-9.26,-9.2737,-9.2649,-9.2906,-9.2966,-9.3098,-9.3394,-9.3528,-9.3453,-9.399,-9.3824,-9.3849,-9.3865,-9.4035,-9.4089,-9.4137,-9.3502,-9.3499,-9.3496,0,0,-9.1728,-9.1903,-9.1999,-9.2254,-9.2314,-9.2361,-9.246,-9.2453,-9.2571,-9.2619,-9.2693,-9.2812,-9.2984,-9.3097,-9.3259,-9.3578,-9.3608,-9.3723,-9.3762,-9.3793,-9.3825,-9.4004,-9.4057,-9.3485,-9.3485,-9.3484,0,0,-9.1661,-9.1783,-9.1744,-9.2043,-9.2157,-9.227,-9.2426,-9.2381,-9.2529,-9.2508,-9.2506,-9.2538,-9.2814,-9.2874,-9.2721,-9.3205,-9.305,-9.3088,-9.3155,-9.3204,-9.3241,-9.3222,-9.2577,0,0,0,0,0,-9.1515,-9.1767,-9.1731,-9.1785,-9.2062,-9.229,-9.2326,-9.2329,-9.222,-9.2344,-9.2399,-9.2333,-9.2792,-9.2657,-9.2712,-9.2883,-9.3341,-9.3366,-9.3391,-9.3553,-9.3603,-9.3646,0,0,0,0,0,0,-9.1537,-9.1603,-9.1724,-9.1847,-9.1909,-9.2281,-9.2098,-9.2106,-9.2207,-9.2191,-9.2324,-9.2337,-9.2345,-9.2628,-9.2678,-9.2841,-9.256,-9.3351,-9.3373,-9.3392,-9.357,-9.3611,-9.3647,0,0,0,0,0,-9.1554,-9.1607,-9.2049,-9.1843,-9.1898,-9.1962,-9.2088,-9.2093,-9.2172,-9.2256,-9.2267,-9.2165,-9.2349,-9.2392,-9.2658,-9.2818,-9.2526,-9.2544,-9.3365,-9.3382,-9.3397,-9.359,0,0,0,0,0,0,-9.1566,-9.1614,-9.2059,-9.2076,-9.1747,-9.1941,-9.1972,-9.2083,-9.2231,-9.2244,-9.2095,-9.2081,-9.2356,-9.2387,-9.242,-9.281,-9.2497,-9.2517,-9.2528,-9.3378,-9.3391,-9.3403,0,0,0,0,0,0,-9.1585,-9.1629,-9.2068,-9.1946,-9.1949,-9.1922,-9.195,-9.2175,-9.2234,-9.2062,-9.2054,-9.2087,-9.2307,-9.2386,-9.2411,-9.2763,-9.2476,-9.2494,-9.2507,-9.2515,-9.3389,-9.3399,0,0,0,0,0,0,-9.1604,-9.1641,-9.1942,-9.1944,-9.1946,-9.2133,-9.2122,-9.2405,-9.2128,-9.2056,-9.2103,-9.2092,-9.2308,-9.2333,-9.2405,-9.2747,-9.2759,-9.2477,-9.2489,-9.2498,-9.2503,0,0,0,0,0,0,0,-9.1619,-9.1368,-9.1961,-9.1942,-9.1943,-9.223,-9.2235,-9.2239,-9.2125,-9.2115,-9.2105,-9.2096,-9.2373,-9.2393,-9.2413,-9.2734,0,0,-9.2475,-9.2484,0,0,0,0,0,0,0,0,-9.1352,-9.1364,-9.1961,-9.1965,-9.1968,-9.2231,-9.2234,-9.2238,-9.2123,-9.2115,-9.2108,-9.21,-9.2378,-9.2394,-9.2411,0,0,0,0,0,0,0,0,0,0,0,0,0,0,0,-9.1962,-9.1964,0,-9.2231,-9.2234,-9.2237,-9.2122,-9.2116,-9.2109,-9.2103,-9.2383,-9.2396,-9.2409,0,0,0,0,0,0,0,0,0,0,0,0,0,0,0,0,0,0,0,0,0,0,0,0,0,0,0,0,0,0,0,0,0,0,0,0,0,0,0,0,0,0,0,0,0,0,0,0,0,0,0,0,0,0,0,0,0,0,0,0,0,0,0,0,0,0,0,0,0]}],[{"header":{"parameterUnit":"kt","parameterCategory":2,"dx":1,"dy":1,"la1":30.253999710083008,"la2":30.299108505249023,"lo1":-89.0895004272461,"lo2":-89.04439544677734,"nx":28,"ny":28,"refTime":"2022-10-04T21:00:00:Z","depth":0,"parameterNumber":2,"parameterNumberName":"V-component_of_WINDS"},"data":[-2.7182,-2.7173,-2.712,-2.7086,-2.7033,-2.6999,-2.697,-2.6927,-2.688,-2.6833,-2.6797,-2.6743,-2.6674,-2.6617,-2.6575,-2.6551,-2.6536,-2.657,-2.6537,-2.6434,-2.6416,-2.6399,-2.6397,-2.6568,-2.6568,-2.665,-2.6651,-2.6652,-2.7106,-2.7053,-2.7021,-2.6953,-2.6923,-2.6858,-2.6799,-2.6779,-2.6751,-2.6693,-2.6655,-2.661,-2.6567,-2.6486,-2.6436,-2.6429,-2.6395,-2.6419,-2.6418,-2.6408,-2.6296,-2.6295,-2.6446,-2.6446,-2.6446,-2.6446,-2.6446,-2.6446,-2.6953,-2.695,-2.6879,-2.6842,-2.6794,-2.675,-2.6737,-2.6672,-2.6638,-2.6581,-2.6525,-2.6493,-2.6425,-2.634,-2.6298,-2.627,-2.6235,-2.6244,-2.6246,-2.625,-2.626,-2.6144,-2.626,-2.6259,-2.6259,-2.6258,-2.6258,0,-2.6824,-2.6781,-2.6746,-2.6696,-2.6667,-2.6623,-2.6574,-2.6565,-2.6455,-2.6433,-2.6395,-2.6365,-2.6305,-2.6263,-2.6206,-2.616,-2.6091,-2.6079,-2.6085,-2.611,-2.614,-2.6122,-2.594,-2.6076,-2.6074,-2.6073,-2.6072,-2.6071,-2.6665,-2.6669,-2.657,-2.6553,-2.6514,-2.6488,-2.6461,-2.6364,-2.6341,-2.6266,-2.6268,-2.6226,-2.6187,-2.6136,-2.606,-2.6015,-2.5981,-2.6038,-2.5974,-2.5997,-2.5979,-2.5979,-2.5978,-2.6053,-2.6055,-2.6057,-2.6059,0,-2.658,-2.6495,-2.6485,-2.6387,-2.6362,-2.6371,-2.6286,-2.628,-2.6218,-2.62,-2.619,-2.6092,-2.6058,-2.5971,-2.5916,-2.5871,-2.5882,-2.585,-2.5903,-2.5892,-2.5933,-2.5929,-2.6085,-2.6099,-2.5923,-2.5924,-2.5926,0,-2.641,-2.642,-2.6292,-2.6291,-2.6298,-2.6201,-2.621,-2.6157,-2.6098,-2.6083,-2.5991,-2.5979,-2.5871,-2.5846,-2.5781,-2.5775,-2.5765,-2.573,-2.5713,-2.5738,-2.5742,-2.5724,-2.5715,-2.5676,-2.5675,-2.5675,-2.5674,0,-2.6285,-2.6229,-2.6227,-2.6201,-2.6098,-2.6099,-2.6056,-2.599,-2.5966,-2.592,-2.5903,-2.5858,-2.5833,-2.5799,-2.5716,-2.5676,-2.5707,-2.5634,-2.5671,-2.5674,-2.5683,-2.5684,-2.5842,-2.5673,-2.5673,-2.5673,-2.5672,0,-2.6135,-2.6091,-2.6102,-2.6013,-2.6003,-2.6002,-2.595,-2.5929,-2.5866,-2.5825,-2.5789,-2.5717,-2.5707,-2.564,-2.5623,-2.5593,-2.5573,-2.5539,-2.554,-2.5534,-2.5462,-2.5561,-2.5722,-2.5735,-2.5527,-2.5526,-2.5525,0,-2.6013,-2.6002,-2.5918,-2.5931,-2.5913,-2.5809,-2.5807,-2.5754,-2.5699,-2.5675,-2.5614,-2.559,-2.5522,-2.5502,-2.5505,-2.5441,-2.548,-2.5434,-2.54,-2.5399,-2.5418,-2.5565,-2.561,-2.5696,-2.5508,-2.551,-2.5511,0,-2.5909,-2.5785,-2.5794,-2.5759,-2.5674,-2.566,-2.5658,-2.5611,-2.56,-2.5553,-2.5547,-2.5511,-2.5457,-2.5427,-2.5365,-2.5373,-2.5451,-2.5315,-2.5312,-2.5341,-2.5494,-2.5536,-2.5551,-2.5407,-2.5409,-2.5411,-2.5498,0,-2.5698,-2.5682,-2.5702,-2.5632,-2.5607,-2.5612,-2.552,-2.5506,-2.5448,-2.539,-2.5382,-2.5319,-2.5273,-2.5268,-2.5213,-2.5259,-2.5238,-2.5182,-2.5111,-2.5209,-2.5236,-2.5247,-2.5078,-2.5076,-2.5074,-2.5072,0,0,-2.5602,-2.5578,-2.5488,-2.5482,-2.5456,-2.5349,-2.5362,-2.5324,-2.5252,-2.5236,-2.5195,-2.5137,-2.5088,-2.5087,-2.5111,-2.5094,-2.5093,-2.5064,-2.5164,-2.5174,-2.5184,-2.5214,-2.5227,-2.5068,-2.5067,-2.5066,-2.5066,0,-2.5506,-2.5458,-2.5472,-2.5428,-2.5361,-2.53,-2.5303,-2.5218,-2.5182,-2.5175,-2.5087,-2.5072,-2.503,-2.4988,-2.4962,-2.5061,-2.4996,-2.5054,-2.5136,-2.5145,-2.5158,-2.517,-2.5203,-2.5216,-2.506,-2.5061,-2.5061,0,-2.5386,-2.5323,-2.532,-2.5257,-2.5213,-2.5199,-2.5101,-2.5092,-2.5081,-2.4967,-2.4961,-2.4914,-2.4852,-2.4865,-2.4868,-2.4831,-2.4913,-2.4873,-2.4884,-2.4883,-2.4886,-2.4903,-2.4918,-2.4724,-2.4723,-2.4723,0,0,-2.5315,-2.5301,-2.5205,-2.523,-2.5208,-2.5117,-2.5102,-2.5042,-2.4989,-2.4968,-2.4907,-2.4857,-2.4831,-2.4816,-2.4788,-2.4815,-2.4794,-2.4835,-2.4851,-2.4864,-2.487,-2.4877,-2.4894,-2.472,-2.472,-2.4719,0,0,-2.5282,-2.517,-2.5121,-2.514,-2.5091,-2.4999,-2.5018,-2.4955,-2.492,-2.491,-2.481,-2.4793,-2.4804,-2.4762,-2.4731,-2.476,-2.4692,-2.4698,-2.4788,-2.4806,-2.4822,-2.4831,-2.4624,0,0,0,0,0,-2.5138,-2.5184,-2.514,-2.513,-2.5051,-2.5023,-2.5012,-2.493,-2.4882,-2.4898,-2.4837,-2.477,-2.4724,-2.4694,-2.4686,-2.4722,-2.468,-2.4687,-2.4694,-2.4815,-2.4836,-2.4853,0,0,0,0,0,0,-2.5133,-2.512,-2.5139,-2.505,-2.5031,-2.502,-2.4921,-2.4899,-2.4878,-2.4865,-2.4784,-2.4767,-2.4698,-2.4693,-2.4687,-2.4722,-2.4625,-2.4683,-2.4689,-2.4694,-2.4823,-2.4839,-2.4854,0,0,0,0,0,-2.5129,-2.5118,-2.5014,-2.5048,-2.5032,-2.4934,-2.4918,-2.49,-2.4882,-2.4788,-2.4769,-2.4822,-2.4701,-2.469,-2.4689,-2.4727,-2.4629,-2.4627,-2.4687,-2.4691,-2.4696,-2.4831,0,0,0,0,0,0,-2.5125,-2.5101,-2.5009,-2.5001,-2.5025,-2.4933,-2.4916,-2.4901,-2.4804,-2.4786,-2.4821,-2.4812,-2.4704,-2.4694,-2.4687,-2.4733,-2.4632,-2.463,-2.4629,-2.469,-2.4694,-2.4697,0,0,0,0,0,0,-2.5106,-2.5096,-2.5005,-2.498,-2.4968,-2.4932,-2.4917,-2.4906,-2.4804,-2.4843,-2.4832,-2.4819,-2.4716,-2.4698,-2.4692,-2.4677,-2.4635,-2.4633,-2.4631,-2.4631,-2.4693,-2.4696,0,0,0,0,0,0,-2.51,-2.5091,-2.4982,-2.4973,-2.4962,-2.4867,-2.4921,-2.4845,-2.4783,-2.4849,-2.4775,-2.4771,-2.4722,-2.4713,-2.4696,-2.4684,-2.4679,-2.4635,-2.4633,-2.4632,-2.4632,0,0,0,0,0,0,0,-2.5095,-2.5177,-2.5056,-2.4967,-2.4957,-2.4927,-2.4925,-2.4923,-2.4782,-2.4779,-2.4776,-2.4773,-2.4646,-2.4644,-2.4642,-2.469,0,0,-2.4635,-2.4634,0,0,0,0,0,0,0,0,-2.5179,-2.5177,-2.5056,-2.5054,-2.5053,-2.4927,-2.4925,-2.4923,-2.4781,-2.4779,-2.4776,-2.4774,-2.4646,-2.4644,-2.4642,0,0,0,0,0,0,0,0,0,0,0,0,0,0,0,-2.5056,-2.5055,0,-2.4927,-2.4925,-2.4924,-2.4781,-2.4779,-2.4777,-2.4775,-2.4645,-2.4644,-2.4642,0,0,0,0,0,0,0,0,0,0,0,0,0,0,0,0,0,0,0,0,0,0,0,0,0,0,0,0,0,0,0,0,0,0,0,0,0,0,0,0,0,0,0,0,0,0,0,0,0,0,0,0,0,0,0,0,0,0,0,0,0,0,0,0,0,0,0,0,0]}]]]